Weather History for Talkeetna, AK

Change the Weather History Date:

Friday, October 18, 2013

  Actual Average Record
Temperature  
Mean Temperature 44 °F -  
Max Temperature 46 °F 38 °F 53 °F (1957)
Min Temperature 41 °F 23 °F -4 °F (1996)
Degree Days  
Heating Degree Days 21    
Moisture  
Dew Point 41 °F    
Average Humidity 89    
Maximum Humidity 93    
Minimum Humidity 80    
Precipitation  
Precipitation 0.04 in - - ()
Sea Level Pressure  
Sea Level Pressure 29.77 in    
Wind  
Wind Speed 3 mph (NNE)    
Max Wind Speed 6 mph    
Max Gust Speed -    
Visibility 10 miles    
Events Rain    
Averages and records for this station are not official NWS values.
T = Trace of Precipitation, MM = Missing Value Source: NWS Daily Summary

Daily Weather History Graph

Daily Weather History Graph

Search for Another Location

Airport:

Trip Planner

Search our weather history database for the weather conditions in past years. The results will help you decide how hot, cold, wet, or windy it might be!

Date:

Astronomy

Oct. 18, 2013 Rise Set
Actual Time 8:55 AM AKDT 6:34 PM AKDT
Civil Twilight 8:08 AM AKDT 7:20 PM AKDT
Nautical Twilight 7:16 AM AKDT 8:12 PM AKDT
Astronomical Twilight 6:24 AM AKDT 9:04 PM AKDT
Moon 6:20 PM AKDT (10/18) 8:45 AM AKDT (10/18)
Length of Visible Light 11h 11m
Length of Day
9h 39m
Full, 100% of the Moon is Illuminated
Oct 18
Full
Oct 18
Full
Oct 26
Last Quarter
Nov 3
New
Nov 9
First Quarter

Hourly Weather History & Observations

Time (AKDT) Temp. Windchill Dew Point Humidity Pressure Visibility Wind Dir Wind Speed Gust Speed Precip Events Conditions
12:53 AM 43.0 °F 39.5 °F 39.9 °F 89% 29.83 in 10.0 mi NNE 5.8 mph - 0.00 in   Overcast
1:53 AM 43.0 °F - 41.0 °F 93% 29.81 in 10.0 mi Calm Calm - N/A   Overcast
2:53 AM 43.0 °F 40.3 °F 39.9 °F 89% 29.78 in 10.0 mi NNE 4.6 mph - N/A   Overcast
3:53 AM 43.0 °F 39.5 °F 39.0 °F 86% 29.75 in 10.0 mi North 5.8 mph - N/A   Overcast
4:53 AM 43.0 °F 41.3 °F 39.0 °F 86% 29.73 in 10.0 mi North 3.5 mph - N/A   Overcast
5:53 AM 42.1 °F - 39.9 °F 92% 29.75 in 6.0 mi Calm Calm - 0.01 in Rain Light Rain
6:53 AM 42.1 °F - 39.9 °F 92% 29.75 in 8.0 mi Calm Calm - 0.05 in Rain Light Rain
7:53 AM 42.1 °F 39.2 °F 39.9 °F 92% 29.74 in 10.0 mi NNE 4.6 mph - 0.02 in Rain Light Rain
8:53 AM 42.1 °F 39.2 °F 39.9 °F 92% 29.74 in 10.0 mi North 4.6 mph - 0.00 in   Overcast
9:53 AM 42.1 °F - 39.9 °F 92% 29.77 in 9.0 mi Calm Calm - 0.00 in Rain Light Rain
10:53 AM 43.0 °F 40.3 °F 39.9 °F 89% 29.76 in 10.0 mi North 4.6 mph - 0.01 in   Overcast
11:53 AM 44.1 °F - 41.0 °F 89% 29.78 in 10.0 mi Calm Calm - 0.00 in   Overcast
12:35 PM 44.6 °F - 42.8 °F 93% 29.78 in 3.0 mi Calm Calm - 0.03 in Rain Rain
12:53 PM 44.1 °F 42.5 °F 42.1 °F 93% 29.81 in 10.0 mi SSE 3.5 mph - 0.04 in Rain Light Rain
1:05 PM 44.6 °F 42.2 °F 42.8 °F 93% 29.80 in 8.0 mi SW 4.6 mph - 0.00 in Rain Light Rain
1:09 PM 44.6 °F - 42.8 °F 93% 29.79 in 10.0 mi Calm Calm - 0.00 in Rain Light Rain
1:53 PM 45.0 °F - 42.1 °F 90% 29.82 in 10.0 mi Calm Calm - 0.00 in   Mostly Cloudy
2:53 PM 46.9 °F - 41.0 °F 80% 29.82 in 10.0 mi Calm Calm - N/A   Mostly Cloudy
3:00 PM 46.4 °F - 42.8 °F 87% 29.81 in 10.0 mi Calm Calm - N/A   Overcast
3:44 PM 46.4 °F 45.2 °F 42.8 °F 87% 29.79 in 10.0 mi North 3.5 mph - N/A   Overcast
3:53 PM 46.0 °F 43.1 °F 42.1 °F 86% 29.80 in 10.0 mi NNE 5.8 mph - N/A   Overcast
4:53 PM 46.0 °F 44.8 °F 43.0 °F 89% 29.79 in 10.0 mi NNE 3.5 mph - N/A   Overcast
5:53 PM 45.0 °F 42.6 °F 42.1 °F 90% 29.77 in 10.0 mi NE 4.6 mph - N/A   Overcast
6:53 PM 45.0 °F 43.5 °F 41.0 °F 86% 29.77 in 10.0 mi NE 3.5 mph - N/A   Overcast
7:53 PM 44.1 °F 41.5 °F 41.0 °F 89% 29.77 in 10.0 mi NNE 4.6 mph - N/A   Overcast
8:53 PM 44.1 °F - 39.0 °F 82% 29.77 in 10.0 mi Calm Calm - 0.00 in Rain Light Rain
9:53 PM 43.0 °F 40.3 °F 39.9 °F 89% 29.75 in 10.0 mi NNE 4.6 mph - 0.01 in Rain Light Rain
10:53 PM 42.1 °F 39.2 °F 39.9 °F 92% 29.72 in 10.0 mi NE 4.6 mph - 0.01 in   Overcast
11:53 PM 41.0 °F - 39.0 °F 93% 29.70 in 10.0 mi Calm Calm - N/A   Mostly Cloudy